Weather History for Chanute, KS

Change the Weather History Date:

Sunday, January 12, 2014

  Actual Average Record
Temperature  
Mean Temperature 49 °F 32 °F  
Max Temperature 67 °F 42 °F 70 °F (1960)
Min Temperature 31 °F 23 °F -19 °F (1918)
Degree Days  
Heating Degree Days 16 33  
Month to date heating degree days 455 396  
Since 1 July heating degree days 2408 2189  
Cooling Degree Days 0 0  
Month to date cooling degree days 0 0  
Year to date cooling degree days 0 0  
Moisture  
Dew Point 31 °F    
Average Humidity 52    
Maximum Humidity 75    
Minimum Humidity 29    
Precipitation  
Precipitation 0.00 in 0.04 in 0.74 in (1927)
Month to date precipitation T 0.47  
Year to date precipitation T 0.47  
Sea Level Pressure  
Sea Level Pressure 29.67 in    
Wind  
Wind Speed 17 mph (South)    
Max Wind Speed 32 mph    
Max Gust Speed 41 mph    
Visibility 10 miles    
Events      
T = Trace of Precipitation, MM = Missing Value Source: NWS Daily Summary

Daily Weather History Graph

Daily Weather History Graph

Search for Another Location

Airport:

Trip Planner

Search our weather history database for the weather conditions in past years. The results will help you decide how hot, cold, wet, or windy it might be!

Date:

Astronomy

Jan. 12, 2014 Rise Set
Actual Time 7:36 AM CST 5:24 PM CST
Civil Twilight 7:07 AM CST 5:53 PM CST
Nautical Twilight 6:35 AM CST 6:25 PM CST
Astronomical Twilight 6:04 AM CST 6:56 PM CST
Moon 2:52 PM CST (1/12) 4:36 AM CST (1/12)
Length of Visible Light 10h 45m
Length of Day
9h 47m
Waxing Gibbous, 90% of the Moon is Illuminated
Jan 12
Waxing Gibbous
Jan 15
Full
Jan 23
Last Quarter
Jan 30
New
Feb 6
First Quarter

Hourly Weather History & Observations

Time (CST) Temp. Windchill Dew Point Humidity Pressure Visibility Wind Dir Wind Speed Gust Speed Precip Events Conditions
12:52 AM 34.0 °F 26.0 °F 26.1 °F 73% 29.91 in 10.0 mi South 10.4 mph - N/A   Clear
1:52 AM 34.0 °F 26.0 °F 27.0 °F 75% 29.89 in 10.0 mi SSE 10.4 mph - N/A   Clear
2:52 AM 36.0 °F 27.5 °F 28.0 °F 73% 29.86 in 10.0 mi SSE 12.7 mph - N/A   Clear
3:52 AM 36.0 °F 28.0 °F 28.0 °F 73% 29.85 in 10.0 mi South 11.5 mph - N/A   Clear
4:52 AM 37.9 °F 29.6 °F 28.0 °F 68% 29.81 in 10.0 mi SSE 13.8 mph - N/A   Clear
5:52 AM 41.0 °F 33.1 °F 27.0 °F 57% 29.79 in 10.0 mi South 15.0 mph - N/A   Clear
6:52 AM 42.1 °F 33.9 °F 27.0 °F 55% 29.76 in 10.0 mi South 17.3 mph - N/A   Clear
7:52 AM 43.0 °F 35.1 °F 27.0 °F 53% 29.75 in 10.0 mi South 17.3 mph - N/A   Clear
8:52 AM 46.9 °F - 28.0 °F 48% 29.72 in 10.0 mi South 20.7 mph 26.5 mph N/A   Clear
9:52 AM 51.1 °F - 30.0 °F 44% 29.70 in 10.0 mi South 24.2 mph 35.7 mph N/A   Clear
10:52 AM 54.0 °F - 32.0 °F 43% 29.68 in 10.0 mi South 23.0 mph 34.5 mph N/A   Clear
11:52 AM 57.9 °F - 33.1 °F 39% 29.62 in 10.0 mi South 26.5 mph 32.2 mph N/A   Clear
12:52 PM 62.1 °F - 33.1 °F 34% 29.57 in 10.0 mi SSW 25.3 mph 35.7 mph N/A   Clear
1:52 PM 64.0 °F - 33.1 °F 31% 29.53 in 10.0 mi South 32.2 mph 39.1 mph N/A   Clear
2:52 PM 66.0 °F - 34.0 °F 30% 29.52 in 10.0 mi South 21.9 mph 31.1 mph N/A   Clear
3:52 PM 66.0 °F - 33.1 °F 29% 29.51 in 10.0 mi SSW 23.0 mph 28.8 mph N/A   Clear
4:52 PM 63.0 °F - 34.0 °F 34% 29.53 in 10.0 mi SSW 17.3 mph - N/A   Clear
5:52 PM 55.9 °F - 35.1 °F 45% 29.55 in 10.0 mi South 12.7 mph - N/A   Clear
6:52 PM 54.0 °F - 34.0 °F 47% 29.56 in 10.0 mi South 13.8 mph - N/A   Clear
7:52 PM 55.9 °F - 33.1 °F 42% 29.55 in 10.0 mi South 15.0 mph - N/A   Clear
8:52 PM 54.0 °F - 34.0 °F 47% 29.55 in 10.0 mi South 17.3 mph - N/A   Clear
9:17 PM 54.0 °F - 34.0 °F 47% 29.61 in 10.0 mi West 11.5 mph - N/A   Clear
9:52 PM 48.9 °F - 33.1 °F 54% 29.59 in 10.0 mi SSW 5.8 mph - N/A   Clear
10:52 PM 46.0 °F 40.2 °F 32.0 °F 58% 29.65 in 10.0 mi NW 12.7 mph - N/A   Clear
11:52 PM 43.0 °F 35.4 °F 30.9 °F 62% 29.67 in 10.0 mi NW 16.1 mph - N/A   Clear